Wetterdaten: Donnerstag, 14.06.2007
Datum Zeit Temp. A. Feuchte A. Luftdruck Regen Wind Richtung Richtung Sonnenschein UV Solar Windben
14.06.2007 00:00 17,1 C 82 % 1006,7 hPa 0,0 mm 0,0 km/h (0 Bft) N 0 0 min 0 UV-I 0 W/m 0,0 km/h (0 Bft)
14.06.2007 00:10 16,9 C 82 % 1006,7 hPa 0,0 mm 0,0 km/h (0 Bft) N-NW 337 0 min 0 UV-I 0 W/m 1,6 km/h (1 Bft)
14.06.2007 00:20 16,8 C 82 % 1006,7 hPa 0,0 mm 0,0 km/h (0 Bft) N-NW 337 0 min 0 UV-I 0 W/m 1,6 km/h (1 Bft)
14.06.2007 00:30 16,6 C 83 % 1006,7 hPa 0,0 mm 0,0 km/h (0 Bft) N-NW 337 0 min 0 UV-I 0 W/m 1,6 km/h (1 Bft)
14.06.2007 00:40 16,5 C 83 % 1006,7 hPa 0,0 mm 0,0 km/h (0 Bft) N-NW 337 0 min 0 UV-I 0 W/m 1,6 km/h (1 Bft)
14.06.2007 00:50 16,5 C 83 % 1006,7 hPa 0,0 mm 0,0 km/h (0 Bft) N-NW 337 0 min 0 UV-I 0 W/m 1,6 km/h (1 Bft)
14.06.2007 01:00 16,3 C 84 % 1006,6 hPa 0,0 mm 0,0 km/h (0 Bft) N 360 0 min 0 UV-I 0 W/m 3,2 km/h (1 Bft)
14.06.2007 01:10 16,2 C 84 % 1006,5 hPa 0,0 mm 0,0 km/h (0 Bft) NO 45 0 min 0 UV-I 0 W/m 3,2 km/h (1 Bft)
14.06.2007 01:20 16,2 C 84 % 1006,5 hPa 0,0 mm 0,0 km/h (0 Bft) NO 45 0 min 0 UV-I 0 W/m 1,6 km/h (1 Bft)
14.06.2007 01:30 16,2 C 85 % 1006,5 hPa 0,0 mm 0,0 km/h (0 Bft) N 0 0 min 0 UV-I 0 W/m 0,0 km/h (0 Bft)
14.06.2007 01:40 16,2 C 84 % 1006,4 hPa 0,0 mm 0,0 km/h (0 Bft) N 0 0 min 0 UV-I 0 W/m 0,0 km/h (0 Bft)
14.06.2007 01:50 16,2 C 84 % 1006,3 hPa 0,0 mm 0,0 km/h (0 Bft) N 0 0 min 0 UV-I 0 W/m 0,0 km/h (0 Bft)
14.06.2007 02:00 16,1 C 85 % 1006,4 hPa 0,0 mm 0,0 km/h (0 Bft) N 0 0 min 0 UV-I 0 W/m 0,0 km/h (0 Bft)
14.06.2007 02:10 15,8 C 86 % 1006,3 hPa 0,0 mm 0,0 km/h (0 Bft) N 0 0 min 0 UV-I 0 W/m 0,0 km/h (0 Bft)
14.06.2007 02:20 15,6 C 86 % 1006,2 hPa 0,0 mm 0,0 km/h (0 Bft) NO 45 0 min 0 UV-I 0 W/m 1,6 km/h (1 Bft)
14.06.2007 02:30 15,8 C 84 % 1006,3 hPa 0,0 mm 0,0 km/h (0 Bft) NO 45 0 min 0 UV-I 0 W/m 1,6 km/h (1 Bft)
14.06.2007 02:40 15,7 C 85 % 1006,2 hPa 0,0 mm 0,0 km/h (0 Bft) NO 45 0 min 0 UV-I 0 W/m 1,6 km/h (1 Bft)
14.06.2007 02:50 15,6 C 85 % 1006,2 hPa 0,0 mm 0,0 km/h (0 Bft) NO 45 0 min 0 UV-I 0 W/m 1,6 km/h (1 Bft)
14.06.2007 03:00 15,5 C 84 % 1006,1 hPa 0,0 mm 0,0 km/h (0 Bft) NO 45 0 min 0 UV-I 0 W/m 1,6 km/h (1 Bft)
14.06.2007 03:10 15,3 C 85 % 1006,2 hPa 0,0 mm 0,0 km/h (0 Bft) NO 45 0 min 0 UV-I 0 W/m 1,6 km/h (1 Bft)
14.06.2007 03:20 15,4 C 85 % 1006,1 hPa 0,0 mm 0,0 km/h (0 Bft) NO 45 0 min 0 UV-I 0 W/m 1,6 km/h (1 Bft)
14.06.2007 03:30 15,3 C 84 % 1006,2 hPa 0,0 mm 0,0 km/h (0 Bft) NO 45 0 min 0 UV-I 0 W/m 1,6 km/h (1 Bft)
14.06.2007 03:40 15,3 C 85 % 1006,1 hPa 0,0 mm 0,0 km/h (0 Bft) NO 45 0 min 0 UV-I 0 W/m 1,6 km/h (1 Bft)
14.06.2007 03:50 15,2 C 85 % 1006,1 hPa 0,0 mm 0,0 km/h (0 Bft) NO 45 0 min 0 UV-I 0 W/m 1,6 km/h (1 Bft)
14.06.2007 04:00 15,0 C 85 % 1005,9 hPa 0,0 mm 0,0 km/h (0 Bft) N 0 0 min 0 UV-I 0 W/m 0,0 km/h (0 Bft)
14.06.2007 04:10 15,0 C 85 % 1005,9 hPa 0,0 mm 0,0 km/h (0 Bft) NO 45 0 min 0 UV-I 0 W/m 1,6 km/h (1 Bft)
14.06.2007 04:20 15,0 C 85 % 1005,9 hPa 0,0 mm 0,0 km/h (0 Bft) NO 45 0 min 0 UV-I 0 W/m 3,2 km/h (1 Bft)
14.06.2007 04:30 15,0 C 85 % 1005,8 hPa 0,0 mm 0,0 km/h (0 Bft) NO 45 0 min 0 UV-I 0 W/m 1,6 km/h (1 Bft)
14.06.2007 04:40 14,9 C 86 % 1005,8 hPa 0,0 mm 0,0 km/h (0 Bft) NO 45 0 min 0 UV-I 0 W/m 1,6 km/h (1 Bft)
14.06.2007 04:50 14,8 C 85 % 1005,9 hPa 0,0 mm 0,0 km/h (0 Bft) N 0 0 min 0 UV-I 0 W/m 0,0 km/h (0 Bft)
14.06.2007 05:00 14,6 C 87 % 1005,8 hPa 0,0 mm 0,0 km/h (0 Bft) NO 45 0 min 0 UV-I 0 W/m 1,6 km/h (1 Bft)
14.06.2007 05:10 14,5 C 87 % 1005,9 hPa 0,0 mm 0,0 km/h (0 Bft) NO 45 0 min 0 UV-I 0 W/m 1,6 km/h (1 Bft)
14.06.2007 05:20 14,6 C 87 % 1006,0 hPa 0,0 mm 0,0 km/h (0 Bft) N 0 0 min 0 UV-I 9 W/m 0,0 km/h (0 Bft)
14.06.2007 05:30 14,4 C 88 % 1005,9 hPa 0,0 mm 0,0 km/h (0 Bft) NO 45 0 min 0 UV-I 18 W/m 1,6 km/h (1 Bft)
14.06.2007 05:40 14,5 C 87 % 1005,9 hPa 0,0 mm 0,0 km/h (0 Bft) NO 45 0 min 0 UV-I 18 W/m 3,2 km/h (1 Bft)
14.06.2007 05:50 14,7 C 87 % 1005,7 hPa 0,0 mm 0,0 km/h (0 Bft) NO 45 0 min 0 UV-I 21 W/m 1,6 km/h (1 Bft)
14.06.2007 06:00 14,7 C 87 % 1005,7 hPa 0,0 mm 0,0 km/h (0 Bft) NO 45 0 min 0 UV-I 37 W/m 1,6 km/h (1 Bft)
14.06.2007 06:10 14,9 C 87 % 1005,7 hPa 0,0 mm 0,0 km/h (0 Bft) NO 45 0 min 0 UV-I 42 W/m 1,6 km/h (1 Bft)
14.06.2007 06:20 15,0 C 86 % 1005,6 hPa 0,0 mm 1,6 km/h (1 Bft) NO 45 0 min 0 UV-I 47 W/m 4,8 km/h (1 Bft)
14.06.2007 06:30 15,1 C 86 % 1005,6 hPa 0,0 mm 1,6 km/h (1 Bft) NO 45 0 min 0 UV-I 53 W/m 3,2 km/h (1 Bft)
14.06.2007 06:40 15,3 C 86 % 1005,5 hPa 0,0 mm 1,6 km/h (1 Bft) NO 45 0 min 0 UV-I 65 W/m 4,8 km/h (1 Bft)
14.06.2007 06:50 15,5 C 85 % 1005,5 hPa 0,0 mm 0,0 km/h (0 Bft) NO 45 0 min 0 UV-I 77 W/m 3,2 km/h (1 Bft)
14.06.2007 07:00 15,7 C 85 % 1005,5 hPa 0,0 mm 0,0 km/h (0 Bft) NO 45 0 min 0 UV-I 77 W/m 1,6 km/h (1 Bft)
14.06.2007 07:10 16,0 C 84 % 1005,5 hPa 0,0 mm 0,0 km/h (0 Bft) NO 45 0 min 0 UV-I 74 W/m 1,6 km/h (1 Bft)
14.06.2007 07:20 16,2 C 84 % 1005,6 hPa 0,0 mm 0,0 km/h (0 Bft) NO 45 0 min 0 UV-I 116 W/m 1,6 km/h (1 Bft)
14.06.2007 07:30 16,4 C 83 % 1005,6 hPa 0,0 mm 0,0 km/h (0 Bft) NO 45 0 min 1 UV-I 127 W/m 3,2 km/h (1 Bft)
14.06.2007 07:40 16,6 C 83 % 1005,7 hPa 0,0 mm 0,0 km/h (0 Bft) NO 45 0 min 1 UV-I 120 W/m 1,6 km/h (1 Bft)
14.06.2007 07:50 16,7 C 83 % 1005,7 hPa 0,0 mm 0,0 km/h (0 Bft) NO 45 0 min 1 UV-I 107 W/m 3,2 km/h (1 Bft)
14.06.2007 08:00 16,9 C 83 % 1005,7 hPa 0,0 mm 0,0 km/h (0 Bft) NO 45 0 min 1 UV-I 179 W/m 1,6 km/h (1 Bft)
14.06.2007 08:10 17,3 C 82 % 1005,6 hPa 0,0 mm 1,6 km/h (1 Bft) NO 45 10 min 1 UV-I 417 W/m 3,2 km/h (1 Bft)
14.06.2007 08:20 18,1 C 78 % 1005,5 hPa 0,0 mm 1,6 km/h (1 Bft) N-NO 22 10 min 1 UV-I 376 W/m 6,4 km/h (2 Bft)
14.06.2007 08:30 18,4 C 78 % 1005,6 hPa 0,0 mm 1,6 km/h (1 Bft) NO 45 0 min 1 UV-I 239 W/m 6,4 km/h (2 Bft)
14.06.2007 08:40 18,9 C 79 % 1005,7 hPa 0,0 mm 0,0 km/h (0 Bft) NO 45 0 min 1 UV-I 202 W/m 3,2 km/h (1 Bft)
14.06.2007 08:50 19,1 C 76 % 1005,8 hPa 0,0 mm 0,0 km/h (0 Bft) NO 45 0 min 1 UV-I 204 W/m 3,2 km/h (1 Bft)
14.06.2007 09:00 19,1 C 76 % 1005,8 hPa 0,0 mm 0,0 km/h (0 Bft) NO 45 0 min 1 UV-I 236 W/m 4,8 km/h (1 Bft)
14.06.2007 09:10 19,5 C 74 % 1005,7 hPa 0,0 mm 0,0 km/h (0 Bft) NO 45 0 min 2 UV-I 283 W/m 3,2 km/h (1 Bft)
14.06.2007 09:20 19,7 C 75 % 1005,7 hPa 0,0 mm 0,0 km/h (0 Bft) NO 45 0 min 1 UV-I 237 W/m 3,2 km/h (1 Bft)
14.06.2007 09:30 19,9 C 75 % 1005,6 hPa 0,0 mm 0,0 km/h (0 Bft) NO 45 0 min 1 UV-I 185 W/m 3,2 km/h (1 Bft)
14.06.2007 09:40 20,1 C 72 % 1005,6 hPa 0,0 mm 1,6 km/h (1 Bft) NO 45 0 min 1 UV-I 185 W/m 4,8 km/h (1 Bft)
14.06.2007 09:50 20,0 C 73 % 1005,6 hPa 0,0 mm 0,0 km/h (0 Bft) NO 45 0 min 1 UV-I 202 W/m 3,2 km/h (1 Bft)
14.06.2007 10:00 20,1 C 72 % 1005,6 hPa 0,0 mm 0,0 km/h (0 Bft) NO 45 0 min 2 UV-I 251 W/m 3,2 km/h (1 Bft)
14.06.2007 10:10 20,5 C 71 % 1005,7 hPa 0,0 mm 0,0 km/h (0 Bft) NO 45 0 min 2 UV-I 269 W/m 4,8 km/h (1 Bft)
14.06.2007 10:20 20,8 C 71 % 1005,7 hPa 0,0 mm 1,6 km/h (1 Bft) NO 45 0 min 2 UV-I 236 W/m 3,2 km/h (1 Bft)
14.06.2007 10:30 20,9 C 70 % 1005,5 hPa 0,0 mm 0,0 km/h (0 Bft) NO 45 0 min 2 UV-I 309 W/m 1,6 km/h (1 Bft)
14.06.2007 10:40 21,6 C 67 % 1005,5 hPa 0,0 mm 1,6 km/h (1 Bft) NO 45 0 min 2 UV-I 362 W/m 4,8 km/h (1 Bft)
14.06.2007 10:50 22,4 C 66 % 1005,4 hPa 0,0 mm 1,6 km/h (1 Bft) NO 45 10 min 5 UV-I 434 W/m 4,8 km/h (1 Bft)
14.06.2007 11:00 22,9 C 61 % 1005,4 hPa 0,0 mm 1,6 km/h (1 Bft) NO 45 10 min 5 UV-I 821 W/m 4,8 km/h (1 Bft)
14.06.2007 11:10 23,1 C 61 % 1005,3 hPa 0,0 mm 1,6 km/h (1 Bft) O 90 10 min 5 UV-I 802 W/m 6,4 km/h (2 Bft)
14.06.2007 11:20 23,6 C 60 % 1005,2 hPa 0,0 mm 1,6 km/h (1 Bft) S 180 10 min 5 UV-I 763 W/m 8,0 km/h (2 Bft)
14.06.2007 11:30 24,0 C 61 % 1004,9 hPa 0,0 mm 1,6 km/h (1 Bft) O-SO 112 10 min 5 UV-I 795 W/m 6,4 km/h (2 Bft)
14.06.2007 11:40 24,7 C 56 % 1005,0 hPa 0,0 mm 3,2 km/h (1 Bft) SO 135 10 min 6 UV-I 802 W/m 6,4 km/h (2 Bft)
14.06.2007 11:50 24,7 C 53 % 1004,8 hPa 0,0 mm 1,6 km/h (1 Bft) O-SO 112 10 min 6 UV-I 828 W/m 4,8 km/h (1 Bft)
14.06.2007 12:00 24,8 C 53 % 1004,7 hPa 0,0 mm 3,2 km/h (1 Bft) S-SW 202 10 min 6 UV-I 837 W/m 11,3 km/h (2 Bft)
14.06.2007 12:10 25,6 C 53 % 1004,7 hPa 0,0 mm 3,2 km/h (1 Bft) O 90 10 min 6 UV-I 867 W/m 6,4 km/h (2 Bft)
14.06.2007 12:20 25,8 C 52 % 1004,6 hPa 0,0 mm 3,2 km/h (1 Bft) S 180 10 min 6 UV-I 870 W/m 9,7 km/h (2 Bft)
14.06.2007 12:30 26,2 C 49 % 1004,6 hPa 0,0 mm 3,2 km/h (1 Bft) O-SO 112 10 min 6 UV-I 879 W/m 8,0 km/h (2 Bft)
14.06.2007 12:40 25,9 C 51 % 1004,7 hPa 0,0 mm 3,2 km/h (1 Bft) W 270 10 min 6 UV-I 923 W/m 8,0 km/h (2 Bft)
14.06.2007 12:50 25,9 C 48 % 1004,6 hPa 0,0 mm 3,2 km/h (1 Bft) O-SO 112 10 min 6 UV-I 919 W/m 9,7 km/h (2 Bft)
14.06.2007 13:00 26,6 C 47 % 1004,5 hPa 0,0 mm 3,2 km/h (1 Bft) S-SW 202 10 min 7 UV-I 942 W/m 6,4 km/h (2 Bft)
14.06.2007 13:10 26,8 C 47 % 1004,4 hPa 0,0 mm 3,2 km/h (1 Bft) O-SO 112 10 min 7 UV-I 932 W/m 11,3 km/h (2 Bft)
14.06.2007 13:20 26,5 C 48 % 1004,4 hPa 0,0 mm 3,2 km/h (1 Bft) W 270 10 min 7 UV-I 947 W/m 6,4 km/h (2 Bft)
14.06.2007 13:30 26,6 C 49 % 1004,3 hPa 0,0 mm 1,6 km/h (1 Bft) SW 225 10 min 7 UV-I 940 W/m 6,4 km/h (2 Bft)
14.06.2007 13:40 27,6 C 46 % 1004,1 hPa 0,0 mm 3,2 km/h (1 Bft) O 90 10 min 7 UV-I 970 W/m 8,0 km/h (2 Bft)
14.06.2007 13:50 27,6 C 48 % 1004,1 hPa 0,0 mm 3,2 km/h (1 Bft) S 180 10 min 7 UV-I 956 W/m 8,0 km/h (2 Bft)
14.06.2007 14:00 27,8 C 45 % 1004,0 hPa 0,0 mm 3,2 km/h (1 Bft) S 180 10 min 7 UV-I 926 W/m 9,7 km/h (2 Bft)
14.06.2007 14:10 27,8 C 47 % 1003,9 hPa 0,0 mm 3,2 km/h (1 Bft) S 180 10 min 6 UV-I 865 W/m 6,4 km/h (2 Bft)
14.06.2007 14:20 28,0 C 44 % 1003,8 hPa 0,0 mm 3,2 km/h (1 Bft) O 90 10 min 7 UV-I 919 W/m 9,7 km/h (2 Bft)
14.06.2007 14:30 27,6 C 47 % 1003,6 hPa 0,0 mm 3,2 km/h (1 Bft) S-SW 202 10 min 6 UV-I 851 W/m 8,0 km/h (2 Bft)
14.06.2007 14:40 27,9 C 47 % 1003,5 hPa 0,0 mm 3,2 km/h (1 Bft) O-SO 112 10 min 5 UV-I 712 W/m 6,4 km/h (2 Bft)
14.06.2007 14:50 28,1 C 48 % 1003,4 hPa 0,0 mm 1,6 km/h (1 Bft) O-NO 67 10 min 6 UV-I 842 W/m 4,8 km/h (1 Bft)
14.06.2007 15:00 27,7 C 46 % 1003,4 hPa 0,0 mm 1,6 km/h (1 Bft) W 270 10 min 5 UV-I 800 W/m 6,4 km/h (2 Bft)
14.06.2007 15:10 27,7 C 47 % 1003,5 hPa 0,0 mm 4,8 km/h (1 Bft) O 90 0 min 3 UV-I 394 W/m 12,9 km/h (3 Bft)
14.06.2007 15:20 27,4 C 48 % 1003,6 hPa 0,0 mm 4,8 km/h (1 Bft) SO 135 0 min 3 UV-I 339 W/m 11,3 km/h (2 Bft)
14.06.2007 15:30 26,5 C 51 % 1003,6 hPa 0,0 mm 4,8 km/h (1 Bft) S 180 0 min 2 UV-I 183 W/m 11,3 km/h (2 Bft)
14.06.2007 15:40 25,9 C 54 % 1003,4 hPa 0,0 mm 3,2 km/h (1 Bft) SO 135 0 min 2 UV-I 267 W/m 9,7 km/h (2 Bft)
14.06.2007 15:50 25,9 C 53 % 1003,5 hPa 0,0 mm 3,2 km/h (1 Bft) SO 135 0 min 2 UV-I 213 W/m 8,0 km/h (2 Bft)
14.06.2007 16:00 25,2 C 65 % 1003,8 hPa 1,0 mm 3,2 km/h (1 Bft) S 180 0 min 1 UV-I 69 W/m 9,7 km/h (2 Bft)
14.06.2007 16:10 23,2 C 77 % 1003,6 hPa 2,3 mm 1,6 km/h (1 Bft) S-SW 202 0 min 0 UV-I 37 W/m 6,4 km/h (2 Bft)
14.06.2007 16:20 21,5 C 79 % 1003,4 hPa 0,3 mm 0,0 km/h (0 Bft) N-NO 22 0 min 1 UV-I 105 W/m 3,2 km/h (1 Bft)
14.06.2007 16:30 21,0 C 86 % 1003,4 hPa 0,0 mm 0,0 km/h (0 Bft) N-NO 22 0 min 2 UV-I 232 W/m 1,6 km/h (1 Bft)
14.06.2007 16:40 21,4 C 82 % 1003,4 hPa 0,0 mm 0,0 km/h (0 Bft) N-NO 22 0 min 2 UV-I 279 W/m 3,2 km/h (1 Bft)
14.06.2007 16:50 22,2 C 86 % 1003,2 hPa 0,0 mm 1,6 km/h (1 Bft) N-NO 22 0 min 2 UV-I 311 W/m 3,2 km/h (1 Bft)
14.06.2007 17:00 22,4 C 87 % 1003,1 hPa 0,0 mm 1,6 km/h (1 Bft) O-NO 67 0 min 2 UV-I 253 W/m 4,8 km/h (1 Bft)
14.06.2007 17:10 22,4 C 86 % 1003,1 hPa 0,0 mm 3,2 km/h (1 Bft) O-SO 112 0 min 1 UV-I 232 W/m 9,7 km/h (2 Bft)
14.06.2007 17:20 22,2 C 83 % 1003,4 hPa 0,0 mm 3,2 km/h (1 Bft) O-SO 112 0 min 1 UV-I 167 W/m 6,4 km/h (2 Bft)
14.06.2007 17:30 21,9 C 83 % 1003,4 hPa 0,0 mm 3,2 km/h (1 Bft) O 90 0 min 1 UV-I 169 W/m 8,0 km/h (2 Bft)
14.06.2007 17:40 21,6 C 83 % 1003,4 hPa 0,0 mm 1,6 km/h (1 Bft) O-SO 112 0 min 1 UV-I 104 W/m 6,4 km/h (2 Bft)
14.06.2007 17:50 21,4 C 82 % 1003,2 hPa 0,0 mm 1,6 km/h (1 Bft) O 90 0 min 1 UV-I 76 W/m 4,8 km/h (1 Bft)
14.06.2007 18:00 21,3 C 83 % 1003,1 hPa 0,0 mm 1,6 km/h (1 Bft) N-NO 22 0 min 0 UV-I 53 W/m 4,8 km/h (1 Bft)
14.06.2007 18:10 21,2 C 83 % 1003,0 hPa 0,0 mm 3,2 km/h (1 Bft) N-NO 22 0 min 0 UV-I 70 W/m 6,4 km/h (2 Bft)
14.06.2007 18:20 21,1 C 86 % 1003,1 hPa 0,0 mm 1,6 km/h (1 Bft) N-NO 22 0 min 1 UV-I 111 W/m 4,8 km/h (1 Bft)
14.06.2007 18:30 21,2 C 86 % 1003,2 hPa 0,0 mm 1,6 km/h (1 Bft) N-NO 22 0 min 1 UV-I 135 W/m 4,8 km/h (1 Bft)
14.06.2007 18:40 21,3 C 84 % 1003,0 hPa 0,0 mm 1,6 km/h (1 Bft) O-NO 67 0 min 1 UV-I 172 W/m 4,8 km/h (1 Bft)
14.06.2007 18:50 21,6 C 85 % 1002,9 hPa 0,0 mm 0,0 km/h (0 Bft) N-NO 22 0 min 1 UV-I 176 W/m 3,2 km/h (1 Bft)
14.06.2007 19:00 21,6 C 85 % 1002,7 hPa 0,0 mm 1,6 km/h (1 Bft) O-NO 67 0 min 0 UV-I 84 W/m 4,8 km/h (1 Bft)
14.06.2007 19:10 21,4 C 86 % 1002,5 hPa 0,0 mm 1,6 km/h (1 Bft) O 90 0 min 1 UV-I 118 W/m 3,2 km/h (1 Bft)
14.06.2007 19:20 21,6 C 86 % 1002,7 hPa 0,0 mm 1,6 km/h (1 Bft) O-NO 67 0 min 0 UV-I 104 W/m 3,2 km/h (1 Bft)
14.06.2007 19:30 21,5 C 86 % 1002,7 hPa 0,0 mm 0,0 km/h (0 Bft) O-NO 67 0 min 0 UV-I 53 W/m 3,2 km/h (1 Bft)
14.06.2007 19:40 21,5 C 84 % 1002,7 hPa 0,0 mm 0,6 km/h (0 Bft) S-SO 153 0 min 0 UV-I 15 W/m 3,2 km/h (1 Bft)
14.06.2007 19:50 21,2 C 79 % 1002,8 hPa 0,0 mm 2,4 km/h (1 Bft) SO 130 0 min 0 UV-I 12 W/m 8,0 km/h (2 Bft)
14.06.2007 20:00 20,6 C 82 % 1002,8 hPa 0,3 mm 2,8 km/h (1 Bft) S-SO 160 0 min 0 UV-I 16 W/m 8,0 km/h (2 Bft)
14.06.2007 20:10 20,2 C 85 % 1002,7 hPa 0,0 mm 1,1 km/h (1 Bft) O-SO 121 0 min 0 UV-I 17 W/m 4,8 km/h (1 Bft)
14.06.2007 20:20 20,0 C 85 % 1002,7 hPa 0,0 mm 2,9 km/h (1 Bft) O-SO 110 0 min 0 UV-I 8 W/m 6,4 km/h (2 Bft)
14.06.2007 20:30 19,9 C 84 % 1002,7 hPa 0,0 mm 2,4 km/h (1 Bft) S-SO 158 0 min 0 UV-I 3 W/m 6,4 km/h (2 Bft)
14.06.2007 20:40 20,0 C 82 % 1002,9 hPa 0,0 mm 3,3 km/h (1 Bft) SO 125 0 min 0 UV-I 0 W/m 9,7 km/h (2 Bft)
14.06.2007 20:50 19,9 C 85 % 1002,7 hPa 0,5 mm 2,8 km/h (1 Bft) O 84 0 min 0 UV-I 0 W/m 8,0 km/h (2 Bft)
14.06.2007 21:00 19,5 C 87 % 1002,3 hPa 0,3 mm 2,8 km/h (1 Bft) O-SO 105 0 min 0 UV-I 6 W/m 6,4 km/h (2 Bft)
14.06.2007 21:10 19,3 C 88 % 1002,2 hPa 0,0 mm 2,6 km/h (1 Bft) O 88 0 min 0 UV-I 2 W/m 6,4 km/h (2 Bft)
14.06.2007 21:20 19,4 C 88 % 1002,6 hPa 0,0 mm 0,9 km/h (0 Bft) O-NO 72 0 min 0 UV-I 0 W/m 4,8 km/h (1 Bft)
14.06.2007 21:30 19,4 C 88 % 1002,8 hPa 0,0 mm 0,0 km/h (0 Bft) O-NO 72 0 min 0 UV-I 0 W/m 0,0 km/h (0 Bft)
14.06.2007 21:40 19,5 C 88 % 1003,1 hPa 0,0 mm 0,2 km/h (0 Bft) O 83 0 min 0 UV-I 0 W/m 1,6 km/h (1 Bft)
14.06.2007 21:50 19,4 C 89 % 1003,3 hPa 0,5 mm 0,9 km/h (0 Bft) SW 230 0 min 0 UV-I 0 W/m 3,2 km/h (1 Bft)
14.06.2007 22:00 19,2 C 90 % 1003,5 hPa 0,5 mm 0,9 km/h (0 Bft) W-SW 251 0 min 0 UV-I 0 W/m 6,4 km/h (2 Bft)
14.06.2007 22:10 19,1 C 90 % 1003,4 hPa 0,5 mm 0,0 km/h (0 Bft) W-SW 250 0 min 0 UV-I 0 W/m 0,0 km/h (0 Bft)
14.06.2007 22:20 19,0 C 90 % 1003,3 hPa 0,3 mm 0,8 km/h (0 Bft) W-SW 251 0 min 0 UV-I 0 W/m 3,2 km/h (1 Bft)
14.06.2007 22:30 18,9 C 91 % 1003,3 hPa 0,3 mm 0,4 km/h (0 Bft) W-SW 251 0 min 0 UV-I 0 W/m 1,6 km/h (1 Bft)
14.06.2007 22:40 18,9 C 91 % 1003,5 hPa 0,0 mm 0,1 km/h (0 Bft) W-SW 250 0 min 0 UV-I 0 W/m 1,6 km/h (1 Bft)
14.06.2007 22:50 18,9 C 91 % 1003,6 hPa 0,0 mm 0,1 km/h (0 Bft) SW 232 0 min 0 UV-I 0 W/m 1,6 km/h (1 Bft)
14.06.2007 23:00 18,8 C 92 % 1003,6 hPa 0,3 mm 1,0 km/h (0 Bft) SO 130 0 min 0 UV-I 0 W/m 4,8 km/h (1 Bft)
14.06.2007 23:10 18,8 C 92 % 1003,4 hPa 0,0 mm 1,6 km/h (1 Bft) O-SO 117 0 min 0 UV-I 0 W/m 4,8 km/h (1 Bft)
14.06.2007 23:20 18,7 C 92 % 1003,3 hPa 0,5 mm 1,4 km/h (1 Bft) O-SO 119 0 min 0 UV-I 0 W/m 4,8 km/h (1 Bft)
14.06.2007 23:30 18,7 C 92 % 1003,2 hPa 0,0 mm 1,6 km/h (1 Bft) O-SO 102 0 min 0 UV-I 0 W/m 4,8 km/h (1 Bft)
14.06.2007 23:40 18,6 C 92 % 1003,1 hPa 0,0 mm 2,1 km/h (1 Bft) O-SO 104 0 min 0 UV-I 0 W/m 4,8 km/h (1 Bft)
14.06.2007 23:50 18,3 C 92 % 1003,0 hPa 0,0 mm 1,0 km/h (0 Bft) O-SO 107 0 min 0 UV-I 0 W/m 4,8 km/h (1 Bft)
_ Min-Zeit 05:30 14:20 21:10 - 00:00 - - - - - 00:00
Minimum _ 14,3 C 44 % 1002,2 hPa - 0,0 km/h (0 Bft) - - - - - 0,0 km/h (0 Bft)
_ Max-Zeit 14:50 23:00 00:00 16:10 15:10 - - 08:10 13:00 13:40 15:10
Maximum _ 28,5 C 92 % 1006,7 hPa 2,3 mm 4,8 km/h
O (1 Bft)
- - 10 min 7 UV-I 970 W/m 12,9 km/h
N (3 Bft)
Durchschnitt _ 20,0 C 77 % 1004,6 hPa #7,4 mm 1,2 km/h (1 Bft) O-SO - #4:40 h 3 UV-I 342 W/m 4,3 km/h (1 Bft)